SWR23 LSZH-KATL

Flight info

Callsign SWR23
Flight time N/A
Altitude 34000
Route VEBIT T51 LASUN T14 LUMEL T10 TORPA DCT REKLA DCT RLP/N0458F360 UL613 ROTSI UM164 TRO/N0457F340 UM729 RESMI UN491 LGL/N0470F380 UN502 JSY DCT LIZAD DCT LULOX/M081F380 DCT GIPER DCT ELSOX DCT DINIM/M081F390 DCT 52N020W 52N030W 52N040W 51N050W DCT ALLRY/N0471F400 DCT PQI DCT KB03E DCT SYR DCT JHW DCT HNN DCT SPAYD DCT KTRYN ONDRE1
Aircraft A332/H-SDE3GHIJ2J3J5M1RVWXY/LB2D1

Departure

Time 2026-05-03 23:56
Airport Zürich Airport (LSZH)

Arrival

Time N/A
Airport Hartsfield Jackson Atlanta International Airport (KATL)
Time Latitude Longitude Altitude Speed Heading
2026-05-03 23:51 47.45538 8.55493 1410 ft 4 kts 51°
2026-05-03 23:51 47.45530 8.55464 1410 ft 2 kts 96°
2026-05-03 23:52 47.45530 8.55462 1410 ft 1 kts 96°
2026-05-03 23:53 47.45527 8.55493 1403 ft 9 kts 96°
2026-05-03 23:53 47.45514 8.55656 1405 ft 22 kts 96°
2026-05-03 23:54 47.45494 8.55940 1403 ft 33 kts 96°
2026-05-03 23:54 47.45518 8.56277 1410 ft 34 kts 56°
2026-05-03 23:54 47.45584 8.56611 1408 ft 38 kts 94°
2026-05-03 23:54 47.45570 8.56828 1403 ft 0 kts 96°
2026-05-03 23:55 47.45567 8.56873 1401 ft 10 kts 96°
2026-05-03 23:55 47.45582 8.56991 1410 ft 9 kts 45°
2026-05-03 23:55 47.45659 8.56976 1405 ft 14 kts 308°
2026-05-03 23:55 47.45681 8.56741 1406 ft 48 kts 276°
2026-05-03 23:56 47.45738 8.55946 1407 ft 109 kts 276°
2026-05-03 23:56 47.45844 8.54565 1457 ft 156 kts 278°
2026-05-03 23:56 47.45984 8.52867 1832 ft 176 kts 277°
2026-05-03 23:56 47.46141 8.50999 2440 ft 186 kts 276°
2026-05-03 23:57 47.46253 8.49045 2974 ft 198 kts 269°
2026-05-03 23:57 47.45899 8.46992 3160 ft 219 kts 236°
2026-05-03 23:57 47.44765 8.45398 3518 ft 232 kts 220°
2026-05-03 23:57 47.43558 8.43773 4107 ft 236 kts 228°
2026-05-03 23:58 47.42490 8.41863 4535 ft 250 kts 233°
2026-05-03 23:58 47.41428 8.39740 4974 ft 262 kts 234°
2026-05-03 23:58 47.40358 8.37526 5636 ft 266 kts 235°
2026-05-03 23:58 47.39292 8.35276 6374 ft 268 kts 238°
2026-05-03 23:59 47.38351 8.32900 7111 ft 269 kts 242°
2026-05-03 23:59 47.37479 8.30469 7952 ft 266 kts 242°
2026-05-03 23:59 47.36624 8.28050 8745 ft 267 kts 242°
2026-05-03 23:59 47.35763 8.25613 9448 ft 270 kts 242°
2026-05-04 00:00 47.34888 8.23144 10138 ft 274 kts 241°
2026-05-04 00:00 47.33978 8.20582 10471 ft 290 kts 241°
2026-05-04 00:00 47.33011 8.17867 10687 ft 308 kts 241°
2026-05-04 00:00 47.31985 8.14989 10951 ft 325 kts 241°
2026-05-04 00:01 47.30922 8.12000 11430 ft 333 kts 241°
2026-05-04 00:01 47.29837 8.08947 11940 ft 340 kts 241°
2026-05-04 00:01 47.28736 8.05840 12517 ft 344 kts 242°
2026-05-04 00:01 47.27888 8.02539 13160 ft 348 kts 256°
2026-05-04 00:02 47.27749 7.98961 13787 ft 355 kts 275°
2026-05-04 00:02 47.28362 7.95412 14343 ft 361 kts 286°
2026-05-04 00:02 47.29288 7.91943 14859 ft 366 kts 291°
2026-05-04 00:02 47.30369 7.88523 15380 ft 370 kts 293°
2026-05-04 00:03 47.31510 7.85115 15905 ft 372 kts 294°
2026-05-04 00:03 47.32663 7.81682 16430 ft 375 kts 294°
2026-05-04 00:03 47.33804 7.78216 16949 ft 378 kts 293°
2026-05-04 00:03 47.34934 7.74698 17449 ft 381 kts 293°
2026-05-04 00:04 47.36053 7.71146 17958 ft 383 kts 292°
2026-05-04 00:04 47.37168 7.67559 18449 ft 386 kts 292°
2026-05-04 00:04 47.38282 7.63945 18897 ft 388 kts 292°
2026-05-04 00:04 47.39400 7.60308 19340 ft 390 kts 292°
2026-05-04 00:05 47.40448 7.56616 19779 ft 390 kts 286°
2026-05-04 00:05 47.41087 7.52733 20231 ft 389 kts 275°
2026-05-04 00:05 47.41308 7.48757 20705 ft 389 kts 270°
2026-05-04 00:05 47.41358 7.44759 21142 ft 390 kts 267°
2026-05-04 00:06 47.41311 7.40754 21585 ft 391 kts 266°
2026-05-04 00:06 47.41218 7.36745 22026 ft 392 kts 265°
2026-05-04 00:06 47.41112 7.32714 22455 ft 393 kts 265°
2026-05-04 00:06 47.41007 7.28669 22886 ft 395 kts 265°
2026-05-04 00:07 47.40911 7.24605 23283 ft 397 kts 265°
2026-05-04 00:07 47.40823 7.20531 23678 ft 398 kts 265°
2026-05-04 00:07 47.40858 7.16427 23997 ft 402 kts 272°
2026-05-04 00:07 47.41235 7.12319 24311 ft 406 kts 276°
2026-05-04 00:08 47.41746 7.08209 24646 ft 408 kts 278°
2026-05-04 00:08 47.42323 7.04101 25003 ft 409 kts 278°
2026-05-04 00:08 47.42935 6.99988 25322 ft 411 kts 279°
2026-05-04 00:08 47.43559 6.95863 25639 ft 413 kts 279°
2026-05-04 00:09 47.44184 6.91718 25942 ft 414 kts 279°
2026-05-04 00:09 47.44796 6.87607 26251 ft 416 kts 278°
2026-05-04 00:09 47.45411 6.83433 26551 ft 417 kts 278°
2026-05-04 00:09 47.46023 6.79234 26852 ft 419 kts 278°
2026-05-04 00:10 47.46634 6.75016 27150 ft 420 kts 278°
2026-05-04 00:10 47.47243 6.70790 27460 ft 421 kts 278°
2026-05-04 00:10 47.47805 6.66531 27755 ft 421 kts 274°
2026-05-04 00:10 47.48195 6.62182 28069 ft 421 kts 273°
2026-05-04 00:11 47.48541 6.57879 28343 ft 423 kts 272°
2026-05-04 00:11 47.48863 6.53546 28604 ft 424 kts 272°
2026-05-04 00:11 47.49172 6.49198 28879 ft 426 kts 272°
2026-05-04 00:11 47.49477 6.44836 29144 ft 428 kts 272°
2026-05-04 00:12 47.49782 6.40454 29399 ft 429 kts 272°
2026-05-04 00:12 47.50088 6.36053 29666 ft 431 kts 272°
2026-05-04 00:12 47.50391 6.31696 29909 ft 432 kts 272°
2026-05-04 00:12 47.50703 6.27209 30159 ft 434 kts 272°
2026-05-04 00:13 47.51008 6.22826 30393 ft 435 kts 271°
2026-05-04 00:13 47.51316 6.18368 30617 ft 436 kts 271°
2026-05-04 00:13 47.51622 6.13901 30810 ft 438 kts 271°
2026-05-04 00:13 47.51929 6.09413 31026 ft 439 kts 271°
2026-05-04 00:14 47.52234 6.04914 31231 ft 440 kts 271°
2026-05-04 00:14 47.52538 6.00401 31437 ft 442 kts 271°
2026-05-04 00:14 47.52845 5.95873 31645 ft 443 kts 272°
2026-05-04 00:14 47.53364 5.91366 31916 ft 446 kts 279°
2026-05-04 00:15 47.54285 5.86960 32218 ft 450 kts 287°
2026-05-04 00:15 47.55646 5.82771 32508 ft 456 kts 295°
2026-05-04 00:15 47.57473 5.78886 32693 ft 463 kts 304°
2026-05-04 00:15 47.59561 5.75241 32957 ft 465 kts 306°
2026-05-04 00:16 47.61727 5.71691 33222 ft 465 kts 307°
2026-05-04 00:16 47.63929 5.68185 33490 ft 464 kts 308°
2026-05-04 00:16 47.66135 5.64696 33737 ft 464 kts 308°
2026-05-04 00:16 47.68341 5.61196 33929 ft 465 kts 308°
2026-05-04 00:17 47.70540 5.57679 34091 ft 465 kts 308°
2026-05-04 00:17 47.72737 5.54142 34282 ft 465 kts 307°
2026-05-04 00:17 47.74917 5.50613 34512 ft 464 kts 307°
2026-05-04 00:17 47.77091 5.47082 34751 ft 462 kts 307°
2026-05-04 00:18 47.79257 5.43554 34987 ft 461 kts 307°
2026-05-04 00:18 47.81416 5.40031 35161 ft 461 kts 307°
2026-05-04 00:18 47.83572 5.36508 35320 ft 461 kts 307°
2026-05-04 00:18 47.85730 5.32977 35481 ft 461 kts 307°
2026-05-04 00:19 47.87886 5.29445 35643 ft 461 kts 307°
2026-05-04 00:19 47.90046 5.25904 35804 ft 461 kts 307°
2026-05-04 00:19 47.92201 5.22367 35949 ft 461 kts 307°
2026-05-04 00:19 47.94353 5.18828 36117 ft 461 kts 307°
2026-05-04 00:20 47.96505 5.15286 36266 ft 461 kts 307°
2026-05-04 00:20 47.98654 5.11745 36414 ft 461 kts 307°
2026-05-04 00:20 48.00808 5.08189 36589 ft 460 kts 307°
2026-05-04 00:20 48.02954 5.04643 36740 ft 460 kts 307°
2026-05-04 00:21 48.05098 5.01095 36871 ft 460 kts 307°
2026-05-04 00:21 48.07242 4.97541 36993 ft 461 kts 307°
2026-05-04 00:21 48.09390 4.93976 37113 ft 460 kts 307°
2026-05-04 00:21 48.11532 4.90419 37238 ft 460 kts 307°
2026-05-04 00:22 48.13677 4.86850 37352 ft 461 kts 306°
2026-05-04 00:22 48.15819 4.83279 37451 ft 461 kts 306°
2026-05-04 00:22 48.17963 4.79704 37587 ft 462 kts 306°
2026-05-04 00:22 48.20107 4.76122 37705 ft 462 kts 306°
2026-05-04 00:23 48.24105 4.68667 37875 ft 456 kts 296°
2026-05-04 00:23 48.26620 4.60061 37920 ft 446 kts 279°
2026-05-04 00:24 48.27164 4.55509 38036 ft 440 kts 270°
2026-05-04 00:24 48.27256 4.50945 38134 ft 436 kts 265°
2026-05-04 00:24 48.27006 4.41861 38330 ft 435 kts 262°
2026-05-04 00:25 48.26615 4.32855 38525 ft 436 kts 262°
2026-05-04 00:25 48.26226 4.23764 38621 ft 438 kts 262°
2026-05-04 00:26 48.25857 4.14600 38724 ft 440 kts 262°
2026-05-04 00:26 48.25495 4.05448 38885 ft 439 kts 263°
2026-05-04 00:27 48.25619 3.96244 39001 ft 446 kts 275°
2026-05-04 00:27 48.27233 3.87184 39128 ft 452 kts 284°
2026-05-04 00:28 48.29302 3.78265 39272 ft 453 kts 285°
2026-05-04 00:28 48.31440 3.69363 39412 ft 453 kts 285°
2026-05-04 00:29 48.33549 3.60454 39531 ft 453 kts 285°
2026-05-04 00:29 48.35631 3.51524 39643 ft 453 kts 285°
2026-05-04 00:30 48.37698 3.42579 39777 ft 453 kts 285°
2026-05-04 00:30 48.39424 3.35075 39623 ft 460 kts 285°
2026-05-04 00:31 48.40772 3.25756 39690 ft 454 kts 272°
2026-05-04 00:31 48.41292 3.16315 39841 ft 452 kts 270°
2026-05-04 00:32 48.41652 3.06881 39941 ft 451 kts 270°
2026-05-04 00:32 48.42247 2.97465 40076 ft 455 kts 279°
2026-05-04 00:33 48.44674 2.83587 40150 ft 458 kts 283°
2026-05-04 00:34 48.46463 2.74368 40230 ft 459 kts 283°
2026-05-04 00:34 48.48249 2.65125 40291 ft 459 kts 283°
2026-05-04 00:35 48.50014 2.55858 40418 ft 459 kts 283°
2026-05-04 00:35 48.51755 2.46625 40524 ft 459 kts 283°
2026-05-04 00:36 48.53482 2.37408 40549 ft 460 kts 283°
2026-05-04 00:36 48.55215 2.28117 40617 ft 460 kts 283°
2026-05-04 00:37 48.56929 2.18800 40659 ft 460 kts 281°
2026-05-04 00:37 48.58355 2.09372 40717 ft 460 kts 279°
2026-05-04 00:38 48.59637 1.99887 40768 ft 461 kts 278°
2026-05-04 00:38 48.60920 1.90399 40820 ft 461 kts 279°
2026-05-04 00:39 48.62225 1.80896 40861 ft 462 kts 279°
2026-05-04 00:39 48.63535 1.71384 40928 ft 462 kts 279°
2026-05-04 00:40 48.64840 1.61845 40960 ft 463 kts 279°
2026-05-04 00:40 48.66134 1.52277 40962 ft 465 kts 279°
2026-05-04 00:41 48.67420 1.42692 40957 ft 464 kts 279°
2026-05-04 00:41 48.68696 1.33122 40963 ft 464 kts 278°
2026-05-04 00:42 48.69964 1.23552 40961 ft 463 kts 278°
2026-05-04 00:42 48.71222 1.13999 40960 ft 462 kts 278°
2026-05-04 00:43 48.72470 1.04452 40961 ft 462 kts 278°
2026-05-04 00:43 48.73711 0.94892 40963 ft 462 kts 278°
2026-05-04 00:44 48.74936 0.85406 40970 ft 462 kts 278°
2026-05-04 00:44 48.76168 0.75833 40963 ft 463 kts 278°
2026-05-04 00:45 48.77393 0.66253 40965 ft 463 kts 278°
2026-05-04 00:45 48.78612 0.56663 40967 ft 463 kts 278°
2026-05-04 00:46 48.80026 0.47122 40962 ft 464 kts 282°
2026-05-04 00:46 48.81762 0.37679 40966 ft 465 kts 283°
2026-05-04 00:47 48.83530 0.28231 40960 ft 466 kts 283°
2026-05-04 00:47 48.85262 0.18731 40963 ft 466 kts 283°
2026-05-04 00:48 48.86958 0.09239 40967 ft 466 kts 282°
2026-05-04 00:48 48.88640 -0.00257 40966 ft 465 kts 282°
2026-05-04 00:49 48.90315 -0.09767 40966 ft 466 kts 282°
2026-05-04 00:49 48.91985 -0.19286 40967 ft 466 kts 282°
2026-05-04 00:50 48.93639 -0.28817 40959 ft 466 kts 282°
2026-05-04 00:50 48.95255 -0.38364 40968 ft 466 kts 282°
2026-05-04 00:51 48.96857 -0.47921 40964 ft 466 kts 282°
2026-05-04 00:51 48.98453 -0.57478 40959 ft 466 kts 282°
2026-05-04 00:52 49.00042 -0.67036 40953 ft 465 kts 281°
2026-05-04 00:52 49.01624 -0.76598 40956 ft 466 kts 281°
2026-05-04 00:53 49.03198 -0.86162 40964 ft 466 kts 281°
2026-05-04 00:53 49.04766 -0.95748 40954 ft 466 kts 281°
2026-05-04 00:54 49.06326 -1.05342 40957 ft 467 kts 281°
2026-05-04 00:54 49.07881 -1.14958 40958 ft 467 kts 281°
2026-05-04 00:55 49.09428 -1.24526 40958 ft 468 kts 281°
2026-05-04 00:55 49.10992 -1.34184 40966 ft 468 kts 281°
2026-05-04 00:56 49.12550 -1.43848 40958 ft 469 kts 281°
2026-05-04 00:56 49.14100 -1.53532 40957 ft 470 kts 281°
2026-05-04 00:57 49.15644 -1.63240 40960 ft 470 kts 281°
2026-05-04 00:57 49.17177 -1.72940 40960 ft 470 kts 281°
2026-05-04 00:58 49.18702 -1.82641 40966 ft 470 kts 281°
2026-05-04 00:58 49.20220 -1.92358 40964 ft 470 kts 281°
2026-05-04 00:59 49.21724 -2.02041 40963 ft 470 kts 281°
2026-05-04 00:59 49.23299 -2.11681 40967 ft 470 kts 282°
2026-05-04 01:00 49.24983 -2.21419 40966 ft 470 kts 283°
2026-05-04 01:00 49.26644 -2.31030 40971 ft 470 kts 283°
2026-05-04 01:01 49.28298 -2.40723 40968 ft 470 kts 282°
2026-05-04 01:01 49.29935 -2.50424 40968 ft 471 kts 282°
2026-05-04 01:02 49.31565 -2.60141 40966 ft 471 kts 282°
2026-05-04 01:02 49.33187 -2.69868 40965 ft 471 kts 282°
2026-05-04 01:03 49.34804 -2.79611 40965 ft 472 kts 282°
2026-05-04 01:03 49.36413 -2.89366 40965 ft 472 kts 282°
2026-05-04 01:04 49.38016 -2.99138 40965 ft 472 kts 282°
2026-05-04 01:04 49.39611 -3.08916 40968 ft 472 kts 282°
2026-05-04 01:05 49.41195 -3.18686 40963 ft 472 kts 282°
2026-05-04 01:05 49.42774 -3.28486 40963 ft 472 kts 282°
2026-05-04 01:06 49.44343 -3.38280 40967 ft 472 kts 282°
2026-05-04 01:06 49.45905 -3.48086 40963 ft 472 kts 282°
2026-05-04 01:07 49.47457 -3.57891 40968 ft 472 kts 282°
2026-05-04 01:07 49.49002 -3.67707 40960 ft 473 kts 282°
2026-05-04 01:08 49.50541 -3.77546 40961 ft 473 kts 282°
2026-05-04 01:08 49.52073 -3.87395 40960 ft 473 kts 282°
2026-05-04 01:09 49.53596 -3.97252 40960 ft 473 kts 282°
2026-05-04 01:09 49.55110 -4.07105 40962 ft 473 kts 282°
2026-05-04 01:10 49.56615 -4.16969 40955 ft 473 kts 282°
2026-05-04 01:10 49.58114 -4.26842 40955 ft 473 kts 282°
2026-05-04 01:11 49.59906 -4.36599 40958 ft 474 kts 287°
2026-05-04 01:11 49.62042 -4.46155 40955 ft 474 kts 288°
2026-05-04 01:12 49.64248 -4.55746 40953 ft 474 kts 288°
2026-05-04 01:12 49.66453 -4.65354 40953 ft 475 kts 288°
2026-05-04 01:13 49.68644 -4.74983 40954 ft 475 kts 288°
2026-05-04 01:13 49.70824 -4.84630 40955 ft 475 kts 288°
2026-05-04 01:14 49.72993 -4.94277 40952 ft 475 kts 288°
2026-05-04 01:14 49.75156 -5.03943 40952 ft 475 kts 288°
2026-05-04 01:15 49.76949 -5.11988 40951 ft 475 kts 288°
2026-05-04 01:15 49.79095 -5.21653 40952 ft 475 kts 288°
2026-05-04 01:16 49.81234 -5.31336 40949 ft 475 kts 288°
2026-05-04 01:16 49.83363 -5.41017 40949 ft 475 kts 288°
2026-05-04 01:17 49.85483 -5.50706 40953 ft 475 kts 288°
2026-05-04 01:17 49.87597 -5.60411 40952 ft 475 kts 288°
2026-05-04 01:18 49.89702 -5.70116 40948 ft 475 kts 288°
2026-05-04 01:18 49.91798 -5.79829 40947 ft 475 kts 288°
2026-05-04 01:19 49.93884 -5.89545 40949 ft 475 kts 288°
2026-05-04 01:19 49.95964 -5.99273 40949 ft 475 kts 288°
2026-05-04 01:20 49.98036 -6.09013 40952 ft 475 kts 288°
2026-05-04 01:20 50.00114 -6.18829 40952 ft 475 kts 288°
2026-05-04 01:21 50.02174 -6.28604 40949 ft 475 kts 288°
2026-05-04 01:21 50.04222 -6.38374 40950 ft 475 kts 288°
2026-05-04 01:22 50.06248 -6.48085 40950 ft 475 kts 288°
2026-05-04 01:22 50.08283 -6.57883 40952 ft 475 kts 287°
2026-05-04 01:23 50.10305 -6.67673 40954 ft 475 kts 287°
2026-05-04 01:23 50.12324 -6.77488 40952 ft 475 kts 287°
2026-05-04 01:24 50.14329 -6.87292 40953 ft 475 kts 287°
2026-05-04 01:24 50.16328 -6.97112 40955 ft 475 kts 287°
2026-05-04 01:25 50.18320 -7.06946 40956 ft 476 kts 287°
2026-05-04 01:25 50.20305 -7.16794 40957 ft 475 kts 287°
2026-05-04 01:26 50.22281 -7.26648 40954 ft 476 kts 287°
2026-05-04 01:26 50.24250 -7.36517 40954 ft 476 kts 287°
2026-05-04 01:27 50.26214 -7.46407 40960 ft 477 kts 287°
2026-05-04 01:27 50.28171 -7.56315 40963 ft 477 kts 287°
2026-05-04 01:28 50.30120 -7.66235 40966 ft 477 kts 287°
2026-05-04 01:28 50.32059 -7.76157 40965 ft 477 kts 287°
2026-05-04 01:29 50.33991 -7.86087 40967 ft 477 kts 287°
2026-05-04 01:29 50.35912 -7.96021 40971 ft 476 kts 287°
2026-05-04 01:30 50.37770 -8.05964 40973 ft 476 kts 286°
2026-05-04 01:30 50.39528 -8.15950 40974 ft 475 kts 286°
2026-05-04 01:31 50.41265 -8.25944 40978 ft 475 kts 286°
2026-05-04 01:31 50.43004 -8.35944 40976 ft 475 kts 286°
2026-05-04 01:32 50.44739 -8.45942 40980 ft 475 kts 286°
2026-05-04 01:32 50.46468 -8.55943 40982 ft 475 kts 286°
2026-05-04 01:33 50.48178 -8.65897 40986 ft 475 kts 285°
2026-05-04 01:33 50.49889 -8.75914 40987 ft 475 kts 285°
2026-05-04 01:34 50.51592 -8.85942 40987 ft 475 kts 286°
2026-05-04 01:34 50.53285 -8.95977 40988 ft 475 kts 286°
2026-05-04 01:35 50.54974 -9.06034 40989 ft 476 kts 286°
2026-05-04 01:35 50.56654 -9.16105 40993 ft 476 kts 285°
2026-05-04 01:36 50.58326 -9.26184 40994 ft 476 kts 285°
2026-05-04 01:36 50.59988 -9.36265 40994 ft 476 kts 286°
2026-05-04 01:37 50.61646 -9.46378 40999 ft 475 kts 285°
2026-05-04 01:37 50.63287 -9.56452 40998 ft 475 kts 285°
2026-05-04 01:38 50.64918 -9.66525 41001 ft 475 kts 285°
2026-05-04 01:38 50.66531 -9.76537 41001 ft 475 kts 285°
2026-05-04 01:39 50.68146 -9.86634 41000 ft 475 kts 285°
2026-05-04 01:39 50.69751 -9.96723 41004 ft 475 kts 285°
2026-05-04 01:40 50.71348 -10.06825 41005 ft 474 kts 285°
2026-05-04 01:40 50.72935 -10.16929 41009 ft 474 kts 285°
2026-05-04 01:41 50.74515 -10.27048 41005 ft 474 kts 285°
2026-05-04 01:41 50.76084 -10.37165 41009 ft 474 kts 285°
2026-05-04 01:42 50.77645 -10.47286 41010 ft 474 kts 285°
2026-05-04 01:42 50.79196 -10.57409 41015 ft 474 kts 285°
2026-05-04 01:43 50.80737 -10.67533 41014 ft 474 kts 285°
2026-05-04 01:43 50.82270 -10.77664 41018 ft 474 kts 285°
2026-05-04 01:44 50.83793 -10.87796 41011 ft 474 kts 285°
2026-05-04 01:44 50.85308 -10.97944 41026 ft 474 kts 285°
2026-05-04 01:45 50.86816 -11.08103 41025 ft 474 kts 286°
2026-05-04 01:45 50.89060 -11.23348 41029 ft 474 kts 285°
2026-05-04 01:46 50.90544 -11.33517 41034 ft 474 kts 285°
2026-05-04 01:46 50.92021 -11.43696 41039 ft 474 kts 285°
2026-05-04 01:47 50.93486 -11.53864 41042 ft 473 kts 286°
2026-05-04 01:47 50.94940 -11.64032 41051 ft 473 kts 286°
2026-05-04 01:48 50.96386 -11.74206 41051 ft 473 kts 287°
2026-05-04 01:48 50.97824 -11.84379 41056 ft 473 kts 284°
2026-05-04 01:49 50.99254 -11.94570 41054 ft 473 kts 285°
2026-05-04 01:49 51.00015 -12.04984 41073 ft 477 kts 276°
2026-05-04 01:50 51.00184 -12.15515 41076 ft 477 kts 272°
2026-05-04 01:50 51.00234 -12.26056 41076 ft 478 kts 272°
2026-05-04 01:51 51.00271 -12.36606 41083 ft 478 kts 272°
2026-05-04 01:51 51.00314 -12.47154 41088 ft 478 kts 274°
2026-05-04 01:52 51.00356 -12.57688 41097 ft 477 kts 274°
2026-05-04 01:52 51.00390 -12.68222 41096 ft 477 kts 274°
2026-05-04 01:53 51.00416 -12.78753 41103 ft 477 kts 272°
2026-05-04 01:53 51.00430 -12.89213 41100 ft 477 kts 272°
2026-05-04 01:54 51.00435 -12.99744 41112 ft 476 kts 271°
2026-05-04 01:54 51.00431 -13.10264 41111 ft 476 kts 272°
2026-05-04 01:55 51.00416 -13.20782 41121 ft 476 kts 271°
2026-05-04 01:55 51.00392 -13.31290 41120 ft 476 kts 272°
2026-05-04 01:56 51.00359 -13.41799 41126 ft 476 kts 272°
2026-05-04 01:56 51.00317 -13.52299 41135 ft 476 kts 272°
2026-05-04 01:57 51.00267 -13.62794 41135 ft 475 kts 272°
2026-05-04 01:57 51.00206 -13.73286 41139 ft 475 kts 272°
2026-05-04 01:58 51.00135 -13.83788 41135 ft 476 kts 272°
2026-05-04 01:58 51.00069 -13.92510 41147 ft 475 kts 272°
2026-05-04 01:59 51.00002 -14.02991 41148 ft 474 kts 273°
2026-05-04 01:59 51.00028 -14.13466 41153 ft 474 kts 273°
2026-05-04 02:00 51.00080 -14.25699 41152 ft 474 kts 273°
2026-05-04 02:00 51.00103 -14.34414 41168 ft 474 kts 272°
2026-05-04 02:01 51.00115 -14.44876 41165 ft 474 kts 272°
2026-05-04 02:01 51.00114 -14.55327 41171 ft 473 kts 273°
2026-05-04 02:02 51.00104 -14.65778 41162 ft 473 kts 272°
2026-05-04 02:02 51.00085 -14.76170 41179 ft 473 kts 272°
2026-05-04 02:03 51.00058 -14.86620 41167 ft 473 kts 272°
2026-05-04 02:03 51.00156 -14.97052 41183 ft 471 kts 279°
2026-05-04 02:04 51.01621 -15.07094 41179 ft 466 kts 290°
2026-05-04 02:04 51.03718 -15.16833 41182 ft 466 kts 292°
2026-05-04 02:05 51.05923 -15.26504 41179 ft 466 kts 292°
2026-05-04 02:05 51.08115 -15.36194 41191 ft 465 kts 292°
2026-05-04 02:06 51.10271 -15.45873 41192 ft 464 kts 292°
2026-05-04 02:06 51.12407 -15.55556 41197 ft 464 kts 292°
2026-05-04 02:07 51.14536 -15.65258 41204 ft 464 kts 291°
2026-05-04 02:07 51.16655 -15.74956 41202 ft 464 kts 291°
2026-05-04 02:08 51.18767 -15.84669 41206 ft 464 kts 291°
2026-05-04 02:08 51.20871 -15.94384 41206 ft 463 kts 291°
2026-05-04 02:09 51.22960 -16.04079 41214 ft 462 kts 291°
2026-05-04 02:09 51.25039 -16.13774 41215 ft 462 kts 291°
2026-05-04 02:10 51.27110 -16.23479 41223 ft 462 kts 291°
2026-05-04 02:10 51.29173 -16.33186 41221 ft 462 kts 291°
2026-05-04 02:11 51.31230 -16.42919 41222 ft 462 kts 291°
2026-05-04 02:11 51.33262 -16.52575 41227 ft 461 kts 291°
2026-05-04 02:12 51.35299 -16.62304 41224 ft 461 kts 291°
2026-05-04 02:12 51.37326 -16.72033 41235 ft 460 kts 291°
2026-05-04 02:13 51.39340 -16.81746 41233 ft 460 kts 291°
2026-05-04 02:13 51.41347 -16.91472 41240 ft 460 kts 291°
2026-05-04 02:14 51.43348 -17.01217 41240 ft 460 kts 291°
2026-05-04 02:14 51.45339 -17.10963 41240 ft 460 kts 291°
2026-05-04 02:15 51.47320 -17.20706 41252 ft 459 kts 290°
2026-05-04 02:15 51.49293 -17.30456 41250 ft 459 kts 290°
2026-05-04 02:16 51.51256 -17.40205 41246 ft 459 kts 290°
2026-05-04 02:16 51.53209 -17.49958 41245 ft 459 kts 290°
2026-05-04 02:17 51.55156 -17.59725 41241 ft 459 kts 290°
2026-05-04 02:17 51.57094 -17.69498 41251 ft 459 kts 290°
2026-05-04 02:18 51.59021 -17.79266 41248 ft 458 kts 290°
2026-05-04 02:18 51.60942 -17.89046 41247 ft 458 kts 290°
2026-05-04 02:19 51.62853 -17.98831 41258 ft 458 kts 290°
2026-05-04 02:19 51.64755 -18.08617 41260 ft 458 kts 290°
2026-05-04 02:20 51.66646 -18.18402 41255 ft 458 kts 289°
2026-05-04 02:20 51.68531 -18.28199 41263 ft 457 kts 289°
2026-05-04 02:21 51.70403 -18.37986 41264 ft 457 kts 289°
2026-05-04 02:21 51.72270 -18.47794 41261 ft 457 kts 289°
2026-05-04 02:22 51.74128 -18.57602 41269 ft 457 kts 289°
2026-05-04 02:22 51.75979 -18.67427 41263 ft 457 kts 289°
2026-05-04 02:23 51.77822 -18.77261 41261 ft 457 kts 289°
2026-05-04 02:23 51.79641 -18.87018 41274 ft 457 kts 289°
2026-05-04 02:24 51.81463 -18.96847 41273 ft 456 kts 289°
2026-05-04 02:24 51.83277 -19.06681 41276 ft 456 kts 289°
2026-05-04 02:25 51.85081 -19.16512 41276 ft 456 kts 289°
2026-05-04 02:25 51.86878 -19.26363 41281 ft 456 kts 288°
2026-05-04 02:26 51.88680 -19.36288 41268 ft 456 kts 288°
2026-05-04 02:26 51.90448 -19.46080 41280 ft 456 kts 288°
2026-05-04 02:27 51.92218 -19.55940 41285 ft 456 kts 288°
2026-05-04 02:27 51.93980 -19.65807 41285 ft 456 kts 288°
2026-05-04 02:28 51.95734 -19.75681 41287 ft 456 kts 288°
2026-05-04 02:28 51.97479 -19.85563 41289 ft 456 kts 288°
2026-05-04 02:29 51.99214 -19.95450 41291 ft 456 kts 287°
2026-05-04 02:29 52.00223 -20.05630 41290 ft 458 kts 277°
2026-05-04 02:30 52.00725 -20.15949 41289 ft 459 kts 276°
2026-05-04 02:30 52.01123 -20.26275 41292 ft 458 kts 275°
2026-05-04 02:31 52.01511 -20.36590 41292 ft 458 kts 276°
2026-05-04 02:31 52.01904 -20.46917 41292 ft 458 kts 276°
2026-05-04 02:32 52.02296 -20.57235 41295 ft 458 kts 276°
2026-05-04 02:32 52.02681 -20.67564 41298 ft 458 kts 275°
2026-05-04 02:33 52.03056 -20.77890 41298 ft 458 kts 275°
2026-05-04 02:33 52.03421 -20.88218 41303 ft 458 kts 275°
2026-05-04 02:34 52.03777 -20.98553 41306 ft 458 kts 275°
2026-05-04 02:34 52.04124 -21.08886 41304 ft 458 kts 275°
2026-05-04 02:35 52.04462 -21.19217 41303 ft 458 kts 275°
2026-05-04 02:35 52.04791 -21.29542 41311 ft 458 kts 275°
2026-05-04 02:36 52.05111 -21.39870 41311 ft 457 kts 275°
2026-05-04 02:36 52.05421 -21.50190 41316 ft 457 kts 275°
2026-05-04 02:37 52.05722 -21.60504 41310 ft 457 kts 274°
2026-05-04 02:37 52.06014 -21.70819 41319 ft 457 kts 275°
2026-05-04 02:38 52.06296 -21.81058 41319 ft 456 kts 274°
2026-05-04 02:38 52.06569 -21.91361 41325 ft 457 kts 274°
2026-05-04 02:39 52.06834 -22.01667 41325 ft 456 kts 274°
2026-05-04 02:39 52.07091 -22.11983 41314 ft 457 kts 274°
2026-05-04 02:40 52.07337 -22.22286 41328 ft 456 kts 274°
2026-05-04 02:40 52.07575 -22.32581 41328 ft 456 kts 274°
2026-05-04 02:41 52.07804 -22.42886 41332 ft 456 kts 274°
2026-05-04 02:41 52.08023 -22.53179 41332 ft 455 kts 274°
2026-05-04 02:42 52.08234 -22.63470 41338 ft 455 kts 274°
2026-05-04 02:42 52.08435 -22.73744 41339 ft 455 kts 273°
2026-05-04 02:43 52.08596 -22.82284 41344 ft 455 kts 273°
2026-05-04 02:43 52.08781 -22.92568 41345 ft 455 kts 273°
2026-05-04 02:44 52.08957 -23.02851 41350 ft 455 kts 273°
2026-05-04 02:44 52.09124 -23.13129 41350 ft 455 kts 273°
2026-05-04 02:45 52.09282 -23.23417 41352 ft 455 kts 273°
2026-05-04 02:45 52.09431 -23.33696 41355 ft 455 kts 273°
2026-05-04 02:46 52.09571 -23.43975 41360 ft 455 kts 272°
2026-05-04 02:46 52.09702 -23.54258 41360 ft 455 kts 272°
2026-05-04 02:47 52.09825 -23.64535 41360 ft 455 kts 272°
2026-05-04 02:47 52.09938 -23.74809 41352 ft 454 kts 272°
2026-05-04 02:48 52.10042 -23.85068 41368 ft 453 kts 272°
2026-05-04 02:48 52.10137 -23.95310 41368 ft 453 kts 272°
2026-05-04 02:49 52.10224 -24.05564 41368 ft 453 kts 272°
2026-05-04 02:49 52.10301 -24.15813 41371 ft 453 kts 272°
2026-05-04 02:50 52.10370 -24.26060 41371 ft 453 kts 272°
2026-05-04 02:50 52.10429 -24.36306 41373 ft 453 kts 272°
2026-05-04 02:51 52.10480 -24.46546 41374 ft 453 kts 271°
2026-05-04 02:51 52.10522 -24.56791 41373 ft 453 kts 271°
2026-05-04 02:52 52.10555 -24.67033 41373 ft 453 kts 271°
2026-05-04 02:52 52.10579 -24.77204 41379 ft 453 kts 271°
2026-05-04 02:53 52.10594 -24.87436 41380 ft 452 kts 271°
2026-05-04 02:53 52.10600 -24.97652 41383 ft 451 kts 271°
2026-05-04 02:54 52.10598 -25.07862 41385 ft 451 kts 271°
2026-05-04 02:54 52.10587 -25.18070 41387 ft 451 kts 271°
2026-05-04 02:55 52.10554 -25.33384 41386 ft 451 kts 271°
2026-05-04 02:56 52.10520 -25.43591 41385 ft 451 kts 271°
2026-05-04 02:56 52.10478 -25.53799 41386 ft 451 kts 271°
2026-05-04 02:57 52.10427 -25.64005 41388 ft 451 kts 271°
2026-05-04 02:57 52.10368 -25.74207 41388 ft 451 kts 271°
2026-05-04 02:58 52.10299 -25.84413 41391 ft 451 kts 270°
2026-05-04 02:58 52.10222 -25.94621 41394 ft 451 kts 270°
2026-05-04 02:59 52.10136 -26.04813 41399 ft 451 kts 270°
2026-05-04 02:59 52.10041 -26.15002 41398 ft 450 kts 270°
2026-05-04 03:00 52.09938 -26.25189 41397 ft 450 kts 270°
2026-05-04 03:00 52.09825 -26.35375 41401 ft 450 kts 270°
2026-05-04 03:01 52.09704 -26.45577 41396 ft 450 kts 270°
2026-05-04 03:01 52.09574 -26.55760 41407 ft 450 kts 270°
2026-05-04 03:02 52.09436 -26.65938 41398 ft 450 kts 270°
2026-05-04 03:02 52.09288 -26.76113 41399 ft 450 kts 270°
2026-05-04 03:03 52.09132 -26.86295 41411 ft 450 kts 269°
2026-05-04 03:03 52.08967 -26.96472 41403 ft 450 kts 269°
2026-05-04 03:04 52.08795 -27.06583 41401 ft 450 kts 269°
2026-05-04 03:04 52.08613 -27.16747 41419 ft 450 kts 269°
2026-05-04 03:05 52.08422 -27.26909 41400 ft 449 kts 269°
2026-05-04 03:05 52.08222 -27.37060 41404 ft 449 kts 269°
2026-05-04 03:06 52.08014 -27.47211 41406 ft 449 kts 269°
2026-05-04 03:06 52.07797 -27.57368 41414 ft 449 kts 269°
2026-05-04 03:07 52.07572 -27.67523 41405 ft 450 kts 269°
2026-05-04 03:07 52.07337 -27.77685 41409 ft 450 kts 269°
2026-05-04 03:08 52.07094 -27.87834 41419 ft 450 kts 268°
2026-05-04 03:08 52.06842 -27.97995 41415 ft 450 kts 268°
2026-05-04 03:09 52.06581 -28.08149 41414 ft 450 kts 268°
2026-05-04 03:09 52.06311 -28.18313 41423 ft 450 kts 268°
2026-05-04 03:10 52.06033 -28.28473 41431 ft 450 kts 268°
2026-05-04 03:10 52.05745 -28.38645 41429 ft 450 kts 268°
2026-05-04 03:11 52.05450 -28.48798 41431 ft 450 kts 268°
2026-05-04 03:11 52.05145 -28.58957 41425 ft 450 kts 268°
2026-05-04 03:12 52.04832 -28.69106 41417 ft 450 kts 268°
2026-05-04 03:12 52.04510 -28.79260 41428 ft 450 kts 268°
2026-05-04 03:13 52.04179 -28.89419 41428 ft 450 kts 268°
2026-05-04 03:13 52.03839 -28.99582 41423 ft 450 kts 268°
2026-05-04 03:14 52.03491 -29.09731 41423 ft 450 kts 268°
2026-05-04 03:14 52.03133 -29.19887 41427 ft 450 kts 268°
2026-05-04 03:15 52.02768 -29.30038 41430 ft 450 kts 267°
2026-05-04 03:15 52.02393 -29.40183 41431 ft 450 kts 267°
2026-05-04 03:16 52.02010 -29.50331 41425 ft 450 kts 267°
2026-05-04 03:16 52.01618 -29.60473 41429 ft 450 kts 267°
2026-05-04 03:17 52.01218 -29.70610 41428 ft 450 kts 267°
2026-05-04 03:17 52.00809 -29.80742 41425 ft 450 kts 267°
2026-05-04 03:18 52.00391 -29.90877 41434 ft 450 kts 267°
2026-05-04 03:18 52.00138 -30.01004 41432 ft 449 kts 272°
2026-05-04 03:19 52.00449 -30.11119 41425 ft 449 kts 274°
2026-05-04 03:19 52.00864 -30.21232 41436 ft 449 kts 274°
2026-05-04 03:20 52.01288 -30.31341 41423 ft 449 kts 274°
2026-05-04 03:20 52.01694 -30.41449 41426 ft 449 kts 274°
2026-05-04 03:21 52.02085 -30.51556 41429 ft 449 kts 274°
2026-05-04 03:21 52.02464 -30.61661 41432 ft 448 kts 274°
2026-05-04 03:22 52.02835 -30.71773 41430 ft 448 kts 274°
2026-05-04 03:22 52.03198 -30.81878 41430 ft 449 kts 274°
2026-05-04 03:23 52.03552 -30.91986 41428 ft 448 kts 274°
2026-05-04 03:23 52.03897 -31.02097 41427 ft 448 kts 274°
2026-05-04 03:24 52.04234 -31.12201 41432 ft 448 kts 274°
2026-05-04 03:24 52.04562 -31.22312 41427 ft 448 kts 273°
2026-05-04 03:25 52.04881 -31.32426 41429 ft 448 kts 273°
2026-05-04 03:25 52.05140 -31.40824 41429 ft 448 kts 273°
2026-05-04 03:26 52.05492 -31.52581 41432 ft 448 kts 273°
2026-05-04 03:26 52.05785 -31.62692 41437 ft 448 kts 273°
2026-05-04 03:27 52.06024 -31.71166 41432 ft 448 kts 273°
2026-05-04 03:27 52.06302 -31.81281 41437 ft 448 kts 273°
2026-05-04 03:28 52.06570 -31.91393 41431 ft 448 kts 273°
2026-05-04 03:28 52.06831 -32.01520 41431 ft 448 kts 273°
2026-05-04 03:29 52.07082 -32.11634 41434 ft 448 kts 272°
2026-05-04 03:29 52.07325 -32.21754 41435 ft 448 kts 272°
2026-05-04 03:30 52.07557 -32.31799 41433 ft 448 kts 272°
2026-05-04 03:30 52.07782 -32.41912 41433 ft 448 kts 272°
2026-05-04 03:31 52.07999 -32.52034 41434 ft 448 kts 272°
2026-05-04 03:31 52.08207 -32.62156 41434 ft 448 kts 272°
2026-05-04 03:32 52.08407 -32.72273 41437 ft 448 kts 272°
2026-05-04 03:32 52.08598 -32.82399 41436 ft 448 kts 272°
2026-05-04 03:33 52.08780 -32.92523 41439 ft 448 kts 272°
2026-05-04 03:33 52.08953 -33.02652 41438 ft 448 kts 272°
2026-05-04 03:34 52.09118 -33.12779 41440 ft 448 kts 272°
2026-05-04 03:34 52.09274 -33.22905 41430 ft 448 kts 271°
2026-05-04 03:35 52.09422 -33.33041 41434 ft 448 kts 271°
2026-05-04 03:35 52.09561 -33.43172 41433 ft 448 kts 271°
2026-05-04 03:36 52.09691 -33.53314 41432 ft 448 kts 271°
2026-05-04 03:36 52.09812 -33.63453 41432 ft 448 kts 271°
2026-05-04 03:37 52.09925 -33.73597 41434 ft 448 kts 271°
2026-05-04 03:37 52.10029 -33.83734 41433 ft 448 kts 271°
2026-05-04 03:38 52.10125 -33.93880 41433 ft 449 kts 271°
2026-05-04 03:38 52.10211 -34.04026 41431 ft 449 kts 271°
2026-05-04 03:39 52.10289 -34.14176 41426 ft 449 kts 271°
2026-05-04 03:39 52.10359 -34.24323 41431 ft 449 kts 271°
2026-05-04 03:40 52.10419 -34.34474 41429 ft 449 kts 271°
2026-05-04 03:40 52.10471 -34.44620 41425 ft 449 kts 271°
2026-05-04 03:41 52.10514 -34.54770 41429 ft 449 kts 270°
2026-05-04 03:41 52.10549 -34.64846 41430 ft 449 kts 270°
2026-05-04 03:42 52.10574 -34.75000 41430 ft 449 kts 270°
2026-05-04 03:42 52.10591 -34.85143 41426 ft 448 kts 270°
2026-05-04 03:43 52.10600 -34.95286 41425 ft 448 kts 270°
2026-05-04 03:43 52.10599 -35.05431 41419 ft 448 kts 270°
2026-05-04 03:44 52.10590 -35.15571 41426 ft 449 kts 270°
2026-05-04 03:44 52.10573 -35.25720 41426 ft 448 kts 270°
2026-05-04 03:45 52.10546 -35.35862 41422 ft 448 kts 270°
2026-05-04 03:45 52.10511 -35.46004 41416 ft 448 kts 270°
2026-05-04 03:46 52.10467 -35.56141 41424 ft 448 kts 270°
2026-05-04 03:46 52.10415 -35.66278 41410 ft 448 kts 270°
2026-05-04 03:47 52.10354 -35.76409 41418 ft 448 kts 270°
2026-05-04 03:47 52.10284 -35.86542 41415 ft 448 kts 269°
2026-05-04 03:48 52.10205 -35.96675 41414 ft 448 kts 269°
2026-05-04 03:48 52.10118 -36.06801 41410 ft 448 kts 269°
2026-05-04 03:49 52.10022 -36.16926 41409 ft 448 kts 269°
2026-05-04 03:49 52.09918 -36.27050 41406 ft 448 kts 269°
2026-05-04 03:50 52.09804 -36.37168 41409 ft 448 kts 269°
2026-05-04 03:50 52.09682 -36.47295 41408 ft 448 kts 269°
2026-05-04 03:51 52.09552 -36.57413 41404 ft 448 kts 269°
2026-05-04 03:51 52.09413 -36.67532 41402 ft 448 kts 269°
2026-05-04 03:52 52.09265 -36.77655 41401 ft 448 kts 269°
2026-05-04 03:52 52.09108 -36.87780 41398 ft 448 kts 269°
2026-05-04 03:53 52.08943 -36.97889 41396 ft 448 kts 269°
2026-05-04 03:53 52.08769 -37.08011 41396 ft 448 kts 269°
2026-05-04 03:54 52.08587 -37.18132 41400 ft 448 kts 269°
2026-05-04 03:54 52.08396 -37.28255 41401 ft 448 kts 268°
2026-05-04 03:55 52.08196 -37.38368 41394 ft 448 kts 268°
2026-05-04 03:55 52.07987 -37.48485 41391 ft 448 kts 268°
2026-05-04 03:56 52.07770 -37.58595 41389 ft 448 kts 268°
2026-05-04 03:56 52.07545 -37.68705 41388 ft 448 kts 268°
2026-05-04 03:57 52.07310 -37.78818 41383 ft 448 kts 268°
2026-05-04 03:57 52.07067 -37.88927 41385 ft 448 kts 268°
2026-05-04 03:58 52.06686 -38.04084 41375 ft 447 kts 268°
2026-05-04 03:58 52.06422 -38.14185 41380 ft 447 kts 268°
2026-05-04 03:59 52.06149 -38.24254 41377 ft 446 kts 268°
2026-05-04 03:59 52.05868 -38.34328 41374 ft 446 kts 268°
2026-05-04 04:00 52.05579 -38.44388 41376 ft 446 kts 268°
2026-05-04 04:00 52.05281 -38.54448 41368 ft 446 kts 268°
2026-05-04 04:01 52.04977 -38.64443 41363 ft 446 kts 267°
2026-05-04 04:01 52.04662 -38.74481 41360 ft 445 kts 267°
2026-05-04 04:02 52.04340 -38.84512 41359 ft 445 kts 267°
2026-05-04 04:02 52.04008 -38.94548 41357 ft 445 kts 267°
2026-05-04 04:03 52.03669 -39.04572 41351 ft 445 kts 267°
2026-05-04 04:03 52.03320 -39.14601 41348 ft 445 kts 267°
2026-05-04 04:04 52.02964 -39.24623 41343 ft 444 kts 267°
2026-05-04 04:04 52.02599 -39.34634 41343 ft 444 kts 267°
2026-05-04 04:05 52.02226 -39.44629 41345 ft 444 kts 267°
2026-05-04 04:05 52.01845 -39.54628 41342 ft 444 kts 267°
2026-05-04 04:06 52.01455 -39.64622 41342 ft 444 kts 267°
2026-05-04 04:06 52.01057 -39.74621 41340 ft 444 kts 267°
2026-05-04 04:07 52.00650 -39.84610 41325 ft 443 kts 267°
2026-05-04 04:07 52.00236 -39.94578 41329 ft 442 kts 266°
2026-05-04 04:08 51.99777 -40.04533 41329 ft 442 kts 266°
2026-05-04 04:08 51.99215 -40.14471 41334 ft 442 kts 265°
2026-05-04 04:09 51.98626 -40.24413 41319 ft 442 kts 265°
2026-05-04 04:09 51.98037 -40.34345 41317 ft 442 kts 265°
2026-05-04 04:10 51.97546 -40.42603 41318 ft 442 kts 265°
2026-05-04 04:10 51.96952 -40.52524 41307 ft 442 kts 265°
2026-05-04 04:11 51.96349 -40.62437 41304 ft 442 kts 265°
2026-05-04 04:11 51.95738 -40.72354 41302 ft 442 kts 265°
2026-05-04 04:12 51.95118 -40.82260 41304 ft 442 kts 265°
2026-05-04 04:12 51.94490 -40.92165 41291 ft 442 kts 265°
2026-05-04 04:13 51.93854 -41.02069 41294 ft 442 kts 265°
2026-05-04 04:13 51.93209 -41.11961 41282 ft 441 kts 265°
2026-05-04 04:14 51.92557 -41.21849 41280 ft 441 kts 265°
2026-05-04 04:14 51.91896 -41.31735 41285 ft 441 kts 265°
2026-05-04 04:15 51.91227 -41.41621 41277 ft 441 kts 265°
2026-05-04 04:15 51.90550 -41.51505 41275 ft 441 kts 265°
2026-05-04 04:16 51.89868 -41.61317 41270 ft 441 kts 265°
2026-05-04 04:16 51.89176 -41.71169 41264 ft 440 kts 265°
2026-05-04 04:17 51.88476 -41.81017 41260 ft 440 kts 265°
2026-05-04 04:17 51.87768 -41.90851 41260 ft 440 kts 265°
2026-05-04 04:18 51.87052 -42.00688 41255 ft 440 kts 264°
2026-05-04 04:18 51.86327 -42.10518 41245 ft 440 kts 264°
2026-05-04 04:19 51.85594 -42.20348 41243 ft 440 kts 265°
2026-05-04 04:19 51.84854 -42.30162 41238 ft 439 kts 264°
2026-05-04 04:20 51.84107 -42.39969 41236 ft 439 kts 264°
2026-05-04 04:20 51.83351 -42.49770 41231 ft 439 kts 264°
2026-05-04 04:21 51.82587 -42.59565 41231 ft 439 kts 264°
2026-05-04 04:21 51.81816 -42.69349 41225 ft 439 kts 264°
2026-05-04 04:22 51.81037 -42.79128 41217 ft 438 kts 264°
2026-05-04 04:22 51.80251 -42.88884 41219 ft 438 kts 264°
2026-05-04 04:23 51.79457 -42.98633 41211 ft 438 kts 264°
2026-05-04 04:23 51.78656 -43.08374 41211 ft 438 kts 264°
2026-05-04 04:24 51.77846 -43.18122 41202 ft 438 kts 264°
2026-05-04 04:24 51.77034 -43.27792 41202 ft 438 kts 264°
2026-05-04 04:25 51.76209 -43.37521 41201 ft 437 kts 264°
2026-05-04 04:25 51.75376 -43.47238 41192 ft 437 kts 264°
2026-05-04 04:26 51.74531 -43.57006 41192 ft 437 kts 263°
2026-05-04 04:26 51.73686 -43.66673 41178 ft 437 kts 263°
2026-05-04 04:27 51.72831 -43.76367 41178 ft 437 kts 263°
2026-05-04 04:27 51.71967 -43.86067 41159 ft 437 kts 263°
2026-05-04 04:28 51.71097 -43.95727 41170 ft 434 kts 263°
2026-05-04 04:28 51.70225 -44.05328 41164 ft 433 kts 263°
2026-05-04 04:29 51.69346 -44.14926 41157 ft 433 kts 263°
2026-05-04 04:29 51.68459 -44.24519 41156 ft 432 kts 263°
2026-05-04 04:30 51.67565 -44.34087 41142 ft 432 kts 263°
2026-05-04 04:30 51.66668 -44.43614 41139 ft 432 kts 263°
2026-05-04 04:31 51.65764 -44.53115 41131 ft 426 kts 262°
2026-05-04 04:31 51.64862 -44.62520 41132 ft 424 kts 262°
2026-05-04 04:32 51.63954 -44.71912 41126 ft 425 kts 262°
2026-05-04 04:32 51.63038 -44.81304 41119 ft 425 kts 262°
2026-05-04 04:33 51.62114 -44.90699 41119 ft 425 kts 262°
2026-05-04 04:33 51.61183 -45.00077 41104 ft 424 kts 262°
2026-05-04 04:34 51.60250 -45.09397 41105 ft 420 kts 262°
2026-05-04 04:34 51.59317 -45.18637 41105 ft 418 kts 262°
2026-05-04 04:35 51.58379 -45.27864 41096 ft 418 kts 262°
2026-05-04 04:35 51.57433 -45.37086 41089 ft 418 kts 262°
2026-05-04 04:36 51.56481 -45.46301 41083 ft 418 kts 261°
2026-05-04 04:36 51.55520 -45.55516 41066 ft 418 kts 261°
2026-05-04 04:37 51.53583 -45.73881 41067 ft 416 kts 261°
2026-05-04 04:38 51.52606 -45.83042 41064 ft 416 kts 261°
2026-05-04 04:38 51.51621 -45.92204 41058 ft 417 kts 261°
2026-05-04 04:39 51.50626 -46.01392 41059 ft 419 kts 261°
2026-05-04 04:39 51.49619 -46.10615 41054 ft 419 kts 261°
2026-05-04 04:40 51.48603 -46.19851 41041 ft 422 kts 261°
2026-05-04 04:40 51.47571 -46.29168 41039 ft 426 kts 261°
2026-05-04 04:41 51.46522 -46.38561 41036 ft 429 kts 261°
2026-05-04 04:41 51.45464 -46.47960 41029 ft 428 kts 261°
2026-05-04 04:42 51.44399 -46.57346 41020 ft 428 kts 261°
2026-05-04 04:42 51.43327 -46.66729 41020 ft 428 kts 261°
2026-05-04 04:43 51.42246 -46.76122 41019 ft 430 kts 261°
2026-05-04 04:43 51.41150 -46.85581 41003 ft 433 kts 261°
2026-05-04 04:44 51.40042 -46.95064 41004 ft 433 kts 261°
2026-05-04 04:44 51.38927 -47.04538 40995 ft 433 kts 261°
2026-05-04 04:45 51.37804 -47.14008 40991 ft 433 kts 260°
2026-05-04 04:47 51.33824 -47.47045 40968 ft 431 kts 260°
2026-05-04 04:47 51.32672 -47.56454 40969 ft 431 kts 260°
2026-05-04 04:48 51.31514 -47.65848 40970 ft 431 kts 260°
2026-05-04 04:49 51.28589 -47.89287 40946 ft 427 kts 259°
2026-05-04 04:49 51.27418 -47.98554 40946 ft 425 kts 259°
2026-05-04 04:50 51.26241 -48.07811 40946 ft 425 kts 259°
2026-05-04 04:50 51.25064 -48.17008 40941 ft 425 kts 259°
2026-05-04 04:51 51.23872 -48.26255 40938 ft 426 kts 259°
2026-05-04 04:51 51.22674 -48.35500 40913 ft 426 kts 258°
2026-05-04 04:52 51.21462 -48.44781 40928 ft 428 kts 257°
2026-05-04 04:52 51.20240 -48.54080 40925 ft 428 kts 257°
2026-05-04 04:53 51.19011 -48.63362 40928 ft 428 kts 257°
2026-05-04 04:53 51.17777 -48.72633 40927 ft 428 kts 257°
2026-05-04 04:54 51.16745 -48.80333 40912 ft 428 kts 257°
2026-05-04 04:54 51.15497 -48.89603 40911 ft 428 kts 257°
2026-05-04 04:55 51.14242 -48.98858 40911 ft 428 kts 257°
2026-05-04 04:55 51.12978 -49.08121 40903 ft 428 kts 257°
2026-05-04 04:56 51.11707 -49.17370 40900 ft 428 kts 257°
2026-05-04 04:56 51.10429 -49.26624 40904 ft 428 kts 257°
2026-05-04 04:57 51.09145 -49.35854 40894 ft 427 kts 257°
2026-05-04 04:57 51.07856 -49.45069 40879 ft 426 kts 256°
2026-05-04 04:58 51.06564 -49.54251 40881 ft 425 kts 256°
2026-05-04 04:58 51.05265 -49.63420 40881 ft 425 kts 256°
2026-05-04 04:59 51.03958 -49.72588 40879 ft 425 kts 256°
2026-05-04 04:59 51.02645 -49.81743 40871 ft 425 kts 256°
2026-05-04 05:00 51.01325 -49.90900 40867 ft 425 kts 256°
2026-05-04 05:01 50.98928 -50.04423 40866 ft 424 kts 249°
2026-05-04 05:01 50.96880 -50.13176 40857 ft 422 kts 248°
2026-05-04 05:02 50.94779 -50.21841 40854 ft 421 kts 248°
2026-05-04 05:02 50.92672 -50.30492 40851 ft 421 kts 248°
2026-05-04 05:03 50.90566 -50.39150 40851 ft 421 kts 248°
2026-05-04 05:04 50.86368 -50.56347 40840 ft 414 kts 247°
2026-05-04 05:04 50.84289 -50.64818 40829 ft 413 kts 247°
2026-05-04 05:06 50.75900 -50.98656 40815 ft 412 kts 246°
2026-05-04 05:07 50.73794 -51.07071 40811 ft 412 kts 246°
2026-05-04 05:07 50.71693 -51.15432 40816 ft 413 kts 246°
2026-05-04 05:09 50.62065 -51.53363 40783 ft 413 kts 245°
2026-05-04 05:10 50.59910 -51.61766 40782 ft 413 kts 245°
2026-05-04 05:10 50.57752 -51.70148 40782 ft 413 kts 245°
2026-05-04 05:11 50.55588 -51.78524 40768 ft 413 kts 245°
2026-05-04 05:11 50.53418 -51.86891 40768 ft 413 kts 245°
2026-05-04 05:12 50.51241 -51.95256 40763 ft 414 kts 245°
2026-05-04 05:12 50.49457 -52.03866 40763 ft 416 kts 252°
2026-05-04 05:13 50.48083 -52.12641 40765 ft 417 kts 253°
2026-05-04 05:13 50.46756 -52.21585 40750 ft 419 kts 253°
2026-05-04 05:14 50.45432 -52.30490 40756 ft 419 kts 253°
2026-05-04 05:14 50.44099 -52.39330 40752 ft 419 kts 252°
2026-05-04 05:15 50.42742 -52.48229 40735 ft 419 kts 252°
2026-05-04 05:15 50.41379 -52.57118 40748 ft 419 kts 252°
2026-05-04 05:16 50.40009 -52.65997 40730 ft 419 kts 252°
2026-05-04 05:16 50.38631 -52.74882 40737 ft 419 kts 252°
2026-05-04 05:17 50.37249 -52.83754 40737 ft 419 kts 252°
2026-05-04 05:17 50.35855 -52.92639 40735 ft 421 kts 251°
2026-05-04 05:18 50.34447 -53.01571 40721 ft 423 kts 251°
2026-05-04 05:18 50.33030 -53.10517 40719 ft 423 kts 251°
2026-05-04 05:19 50.31608 -53.19449 40714 ft 423 kts 251°
2026-05-04 05:19 50.30177 -53.28386 40711 ft 423 kts 251°
2026-05-04 05:20 50.28739 -53.37312 40708 ft 423 kts 251°
2026-05-04 05:20 50.27295 -53.46235 40701 ft 424 kts 251°
2026-05-04 05:21 50.25842 -53.55159 40698 ft 424 kts 251°
2026-05-04 05:21 50.24381 -53.64086 40723 ft 424 kts 250°
2026-05-04 05:22 50.22910 -53.73028 40693 ft 426 kts 250°
2026-05-04 05:22 50.21428 -53.81988 40696 ft 426 kts 250°
2026-05-04 05:23 50.19940 -53.90942 40688 ft 426 kts 250°
2026-05-04 05:23 50.18455 -53.99831 40673 ft 426 kts 250°
2026-05-04 05:24 50.16953 -54.08768 40679 ft 426 kts 250°
2026-05-04 05:24 50.15444 -54.17707 40674 ft 426 kts 250°
2026-05-04 05:25 50.13928 -54.26640 40667 ft 426 kts 250°
2026-05-04 05:25 50.12405 -54.35563 40661 ft 426 kts 250°
2026-05-04 05:26 50.10874 -54.44491 40671 ft 427 kts 250°
2026-05-04 05:26 50.09328 -54.53454 40650 ft 429 kts 249°
2026-05-04 05:28 50.03064 -54.89346 40628 ft 430 kts 249°
2026-05-04 05:29 50.01481 -54.98298 40636 ft 430 kts 249°
2026-05-04 05:29 49.99887 -55.07267 40628 ft 431 kts 249°
2026-05-04 05:31 49.93418 -55.43230 40614 ft 434 kts 249°
2026-05-04 05:32 49.91766 -55.52300 40613 ft 434 kts 248°
2026-05-04 05:33 49.89280 -55.65860 40605 ft 436 kts 248°
2026-05-04 05:33 49.87624 -55.74848 40599 ft 436 kts 248°
2026-05-04 05:34 49.85950 -55.83884 40600 ft 436 kts 248°
2026-05-04 05:34 49.84267 -55.92921 40586 ft 436 kts 248°
2026-05-04 05:35 49.82578 -56.01946 40599 ft 436 kts 248°
2026-05-04 05:35 49.80878 -56.10985 40592 ft 438 kts 248°
2026-05-04 05:36 49.79168 -56.20032 40581 ft 438 kts 248°
2026-05-04 05:36 49.77452 -56.29078 40581 ft 438 kts 248°
2026-05-04 05:37 49.75729 -56.38111 40566 ft 438 kts 248°
2026-05-04 05:37 49.73997 -56.47147 40566 ft 438 kts 248°
2026-05-04 05:38 49.71387 -56.60680 40562 ft 439 kts 248°
2026-05-04 05:38 49.69630 -56.69732 40557 ft 441 kts 248°
2026-05-04 05:39 49.66978 -56.83329 40540 ft 441 kts 248°
2026-05-04 05:40 49.64611 -56.95384 40530 ft 441 kts 248°
2026-05-04 05:40 49.62824 -57.04434 40555 ft 441 kts 247°
2026-05-04 05:41 49.61029 -57.13478 40526 ft 442 kts 247°
2026-05-04 05:41 49.59225 -57.22525 40503 ft 442 kts 247°
2026-05-04 05:42 49.57411 -57.31585 40507 ft 442 kts 247°
2026-05-04 05:42 49.55588 -57.40643 40490 ft 444 kts 247°
2026-05-04 05:43 49.53754 -57.49712 40468 ft 445 kts 247°
2026-05-04 05:45 49.46310 -57.86118 40407 ft 446 kts 246°
2026-05-04 05:47 49.38728 -58.22518 40361 ft 451 kts 246°
2026-05-04 05:47 49.36804 -58.31662 40362 ft 450 kts 246°
2026-05-04 05:48 49.34870 -58.40805 40340 ft 450 kts 246°
2026-05-04 05:48 49.32930 -58.49933 40339 ft 450 kts 246°
2026-05-04 05:49 49.30981 -58.59064 40331 ft 451 kts 246°
2026-05-04 05:49 49.29020 -58.68203 40325 ft 453 kts 246°
2026-05-04 05:51 49.21065 -59.04887 40309 ft 454 kts 246°
2026-05-04 05:52 49.19057 -59.14049 40306 ft 454 kts 246°
2026-05-04 05:52 49.17041 -59.23200 40292 ft 454 kts 246°
2026-05-04 05:54 49.08903 -59.59746 40261 ft 455 kts 246°
2026-05-04 05:55 49.06848 -59.68873 40276 ft 455 kts 246°
2026-05-04 05:55 49.04787 -59.77993 40272 ft 455 kts 245°
2026-05-04 05:56 49.02719 -59.87100 40272 ft 455 kts 245°
2026-05-04 05:56 49.00656 -59.96148 40261 ft 455 kts 245°
2026-05-04 05:57 48.98572 -60.05250 40266 ft 455 kts 246°
2026-05-04 05:57 48.96483 -60.14333 40282 ft 455 kts 245°
2026-05-04 05:58 48.94381 -60.23430 40255 ft 457 kts 245°
2026-05-04 05:58 48.92263 -60.32557 40252 ft 458 kts 245°
2026-05-04 05:59 48.90137 -60.41688 40250 ft 458 kts 245°
2026-05-04 05:59 48.88004 -60.50807 40247 ft 458 kts 245°
2026-05-04 06:00 48.85861 -60.59931 40248 ft 459 kts 245°
2026-05-04 06:00 48.83709 -60.69054 40247 ft 459 kts 245°
2026-05-04 06:01 48.81551 -60.78163 40236 ft 459 kts 245°
2026-05-04 06:03 48.72891 -61.14344 40242 ft 456 kts 245°
2026-05-04 06:05 48.63012 -61.54899 40236 ft 457 kts 245°
2026-05-04 06:06 48.60797 -61.63892 40228 ft 457 kts 245°
2026-05-04 06:06 48.58573 -61.72885 40233 ft 457 kts 245°
2026-05-04 06:07 48.56339 -61.81885 40237 ft 457 kts 245°
2026-05-04 06:07 48.54103 -61.90857 40228 ft 457 kts 245°
2026-05-04 06:08 48.51857 -61.99828 40245 ft 457 kts 244°
2026-05-04 06:08 48.49607 -62.08785 40233 ft 457 kts 244°
2026-05-04 06:09 48.47349 -62.17731 40265 ft 456 kts 245°
2026-05-04 06:11 48.38272 -62.53360 40255 ft 455 kts 245°
2026-05-04 06:13 48.29106 -62.88773 40273 ft 454 kts 245°
2026-05-04 06:14 48.21005 -63.19638 40293 ft 454 kts 244°
2026-05-04 06:15 48.18669 -63.28455 40291 ft 454 kts 244°
2026-05-04 06:15 48.16328 -63.37258 40300 ft 454 kts 243°
2026-05-04 06:16 48.13986 -63.46038 40292 ft 454 kts 245°
2026-05-04 06:16 48.11639 -63.54806 40319 ft 454 kts 243°
2026-05-04 06:17 48.09286 -63.63553 40316 ft 454 kts 244°
2026-05-04 06:17 48.06926 -63.72289 40319 ft 453 kts 243°
2026-05-04 06:18 48.04564 -63.81017 40334 ft 452 kts 243°
2026-05-04 06:20 47.95057 -64.15796 40382 ft 454 kts 243°
2026-05-04 06:21 47.89029 -64.37596 40387 ft 454 kts 245°
2026-05-04 06:22 47.86614 -64.46276 40409 ft 453 kts 243°
2026-05-04 06:25 47.69875 -65.05541 40481 ft 458 kts 244°
2026-05-04 06:26 47.67386 -65.14232 40480 ft 458 kts 244°
2026-05-04 06:26 47.64893 -65.22908 40489 ft 457 kts 244°
2026-05-04 06:27 47.58650 -65.44492 40521 ft 456 kts 244°
2026-05-04 06:28 47.56137 -65.53125 40523 ft 457 kts 244°
2026-05-04 06:28 47.53617 -65.61755 40549 ft 457 kts 245°
2026-05-04 06:29 47.51088 -65.70386 40551 ft 456 kts 244°
2026-05-04 06:29 47.48559 -65.78984 40567 ft 456 kts 244°
2026-05-04 06:30 47.46025 -65.87570 40572 ft 456 kts 244°
2026-05-04 06:30 47.43486 -65.96145 40572 ft 456 kts 244°
2026-05-04 06:31 47.40939 -66.04712 40606 ft 456 kts 244°
2026-05-04 06:31 47.38391 -66.13258 40587 ft 453 kts 244°
2026-05-04 06:33 47.28192 -66.47164 40609 ft 452 kts 244°
2026-05-04 06:34 47.25625 -66.55624 40624 ft 452 kts 244°
2026-05-04 06:34 47.23057 -66.64061 40626 ft 452 kts 244°
2026-05-04 06:36 47.12706 -66.97777 40644 ft 453 kts 244°
2026-05-04 06:37 47.10097 -67.06205 40652 ft 453 kts 244°
2026-05-04 06:37 47.07486 -67.14613 40659 ft 453 kts 244°
2026-05-04 06:38 47.04865 -67.23023 40658 ft 453 kts 244°
2026-05-04 06:40 46.94315 -67.56595 40674 ft 453 kts 244°
2026-05-04 06:40 46.91662 -67.64969 40676 ft 454 kts 244°
2026-05-04 06:41 46.89003 -67.73332 40673 ft 453 kts 244°
2026-05-04 06:41 46.86337 -67.81692 40669 ft 453 kts 244°
2026-05-04 06:42 46.83672 -67.90023 40668 ft 452 kts 244°
2026-05-04 06:44 46.70286 -68.20644 40702 ft 451 kts 226°
2026-05-04 06:44 46.65950 -68.27251 40703 ft 451 kts 226°
2026-05-04 06:45 46.61643 -68.33808 40715 ft 451 kts 226°
2026-05-04 06:45 46.57321 -68.40417 40719 ft 451 kts 226°
2026-05-04 06:46 46.53007 -68.47019 40717 ft 450 kts 226°
2026-05-04 06:46 46.48689 -68.53613 40724 ft 450 kts 226°
2026-05-04 06:48 46.31382 -68.79870 40748 ft 450 kts 226°
2026-05-04 06:50 46.14021 -69.05952 40773 ft 450 kts 226°
2026-05-04 06:51 46.09675 -69.12442 40785 ft 450 kts 226°
2026-05-04 06:51 46.05322 -69.18925 40781 ft 449 kts 226°
2026-05-04 06:52 46.00976 -69.25383 40782 ft 448 kts 226°
2026-05-04 06:52 45.96638 -69.31816 40778 ft 448 kts 226°
2026-05-04 06:53 45.92289 -69.38247 40766 ft 448 kts 226°
2026-05-04 06:53 45.87940 -69.44663 40776 ft 448 kts 226°
2026-05-04 06:54 45.83588 -69.51068 40771 ft 448 kts 226°
2026-05-04 06:54 45.79235 -69.57461 40772 ft 448 kts 226°
2026-05-04 06:55 45.74879 -69.63841 40776 ft 448 kts 226°
2026-05-04 06:55 45.70519 -69.70212 40784 ft 448 kts 226°
2026-05-04 06:57 45.53066 -69.95569 40790 ft 448 kts 226°
2026-05-04 06:58 45.49281 -70.02565 40798 ft 446 kts 241°
2026-05-04 06:58 45.46418 -70.10404 40799 ft 446 kts 244°
2026-05-04 06:59 45.43743 -70.18381 40802 ft 446 kts 245°
2026-05-04 06:59 45.41084 -70.26365 40810 ft 446 kts 244°
2026-05-04 07:01 45.30286 -70.58065 40816 ft 446 kts 244°
2026-05-04 07:02 45.27565 -70.65979 40818 ft 446 kts 244°
2026-05-04 07:02 45.24839 -70.73886 40822 ft 446 kts 244°
2026-05-04 07:03 45.22111 -70.81773 40824 ft 446 kts 244°
2026-05-04 07:03 45.19374 -70.89664 40823 ft 446 kts 244°
2026-05-04 07:04 45.16629 -70.97555 40826 ft 446 kts 244°
2026-05-04 07:04 45.13881 -71.05434 40825 ft 446 kts 244°
2026-05-04 07:05 45.11146 -71.13250 40833 ft 446 kts 244°
2026-05-04 07:05 45.08368 -71.21164 40832 ft 446 kts 244°
2026-05-04 07:06 45.04239 -71.32888 40827 ft 446 kts 244°
2026-05-04 07:07 45.01474 -71.40709 40836 ft 444 kts 244°
2026-05-04 07:09 44.90415 -71.71771 40838 ft 442 kts 244°
2026-05-04 07:09 44.87639 -71.79512 40838 ft 442 kts 244°
2026-05-04 07:10 44.85309 -71.85994 40841 ft 442 kts 244°
2026-05-04 07:12 44.74159 -72.16794 40837 ft 442 kts 244°
2026-05-04 07:12 44.71356 -72.24483 40826 ft 442 kts 244°
2026-05-04 07:13 44.68549 -72.32161 40830 ft 441 kts 244°
2026-05-04 07:13 44.65739 -72.39827 40836 ft 441 kts 244°
2026-05-04 07:14 44.58704 -72.58922 40833 ft 440 kts 244°
2026-05-04 07:15 44.55884 -72.66539 40832 ft 440 kts 244°
2026-05-04 07:15 44.53060 -72.74148 40831 ft 440 kts 243°
2026-05-04 07:16 44.50232 -72.81746 40833 ft 440 kts 243°
2026-05-04 07:16 44.47398 -72.89338 40826 ft 440 kts 243°
2026-05-04 07:17 44.44566 -72.96904 40833 ft 438 kts 243°
2026-05-04 07:17 44.41734 -73.04450 40833 ft 438 kts 243°
2026-05-04 07:18 44.38896 -73.11991 40838 ft 438 kts 243°
2026-05-04 07:18 44.36053 -73.19524 40832 ft 438 kts 243°
2026-05-04 07:19 44.33204 -73.27053 40826 ft 438 kts 243°
2026-05-04 07:19 44.30353 -73.34567 40837 ft 437 kts 243°
2026-05-04 07:20 44.27502 -73.42062 40840 ft 437 kts 243°
2026-05-04 07:20 44.24641 -73.49562 40840 ft 438 kts 243°
2026-05-04 07:22 44.13185 -73.79396 40829 ft 436 kts 243°
2026-05-04 07:23 44.10310 -73.86832 40832 ft 436 kts 243°
2026-05-04 07:23 44.07431 -73.94261 40836 ft 436 kts 243°
2026-05-04 07:24 44.04544 -74.01688 40837 ft 436 kts 243°
2026-05-04 07:24 44.01662 -74.09085 40873 ft 435 kts 243°
2026-05-04 07:26 43.90090 -74.38589 40873 ft 434 kts 243°
2026-05-04 07:27 43.87195 -74.45922 40880 ft 433 kts 243°
2026-05-04 07:27 43.84298 -74.53241 40876 ft 433 kts 243°
2026-05-04 07:28 43.81398 -74.60550 40868 ft 433 kts 243°
2026-05-04 07:28 43.78493 -74.67851 40879 ft 433 kts 243°
2026-05-04 07:29 43.75585 -74.75144 40879 ft 433 kts 243°
2026-05-04 07:29 43.72670 -74.82432 40880 ft 433 kts 243°
2026-05-04 07:30 43.69751 -74.89712 40886 ft 433 kts 243°
2026-05-04 07:30 43.66829 -74.96983 40890 ft 433 kts 243°
2026-05-04 07:31 43.63903 -75.04245 40887 ft 433 kts 243°
2026-05-04 07:33 43.52163 -75.33194 40884 ft 432 kts 242°
2026-05-04 07:33 43.49220 -75.40406 40878 ft 432 kts 242°
2026-05-04 07:34 43.46270 -75.47614 40882 ft 432 kts 242°
2026-05-04 07:34 43.43322 -75.54802 40882 ft 431 kts 242°
2026-05-04 07:35 43.40369 -75.61983 40879 ft 431 kts 242°
2026-05-04 07:35 43.37435 -75.69102 40880 ft 431 kts 242°
2026-05-04 07:36 43.34474 -75.76269 40878 ft 431 kts 242°
2026-05-04 07:38 43.22595 -76.04839 40868 ft 431 kts 242°
2026-05-04 07:38 43.19609 -76.11975 40869 ft 431 kts 242°
2026-05-04 07:39 43.16643 -76.19102 40866 ft 430 kts 244°
2026-05-04 07:39 43.14125 -76.26517 40869 ft 429 kts 248°
2026-05-04 07:40 43.11753 -76.33960 40869 ft 429 kts 248°
2026-05-04 07:40 43.09389 -76.41456 40873 ft 429 kts 248°
2026-05-04 07:41 43.07015 -76.48944 40875 ft 429 kts 248°
2026-05-04 07:41 43.04631 -76.56421 40874 ft 429 kts 248°
2026-05-04 07:42 43.02236 -76.63898 40881 ft 429 kts 248°
2026-05-04 07:42 42.99839 -76.71358 40863 ft 428 kts 248°
2026-05-04 07:43 42.97444 -76.78796 40888 ft 428 kts 248°
2026-05-04 07:43 42.95042 -76.86234 40877 ft 428 kts 248°
2026-05-04 07:44 42.92632 -76.93675 40872 ft 429 kts 248°
2026-05-04 07:44 42.90216 -77.01115 40871 ft 429 kts 248°
2026-05-04 07:45 42.87792 -77.08559 40875 ft 429 kts 248°
2026-05-04 07:45 42.85368 -77.15981 40883 ft 428 kts 248°
2026-05-04 07:46 42.82939 -77.23399 40887 ft 428 kts 248°
2026-05-04 07:46 42.80509 -77.30801 40876 ft 428 kts 248°
2026-05-04 07:47 42.78074 -77.38195 40888 ft 428 kts 248°
2026-05-04 07:49 42.68298 -77.67685 40901 ft 427 kts 248°
2026-05-04 07:49 42.65841 -77.75048 40898 ft 428 kts 248°
2026-05-04 07:50 42.63379 -77.82403 40901 ft 428 kts 248°
2026-05-04 07:50 42.60913 -77.89753 40907 ft 428 kts 248°
2026-05-04 07:51 42.58441 -77.97097 40894 ft 428 kts 248°
2026-05-04 07:51 42.55969 -78.04425 40907 ft 427 kts 248°
2026-05-04 07:52 42.53496 -78.11737 40904 ft 426 kts 248°
2026-05-04 07:52 42.51018 -78.19043 40902 ft 426 kts 248°
2026-05-04 07:54 42.41483 -78.46975 40903 ft 426 kts 247°
2026-05-04 07:55 42.38988 -78.54237 40908 ft 425 kts 247°
2026-05-04 07:55 42.36489 -78.61496 40907 ft 425 kts 247°
2026-05-04 07:56 42.33988 -78.68736 40904 ft 425 kts 247°
2026-05-04 07:56 42.31479 -78.75982 40904 ft 426 kts 247°
2026-05-04 07:57 42.28963 -78.83233 40912 ft 426 kts 247°
2026-05-04 07:57 42.26443 -78.90473 40904 ft 426 kts 247°
2026-05-04 07:58 42.23916 -78.97712 40907 ft 426 kts 247°
2026-05-04 07:58 42.21401 -79.04893 40900 ft 426 kts 246°
2026-05-04 07:59 42.18155 -79.11619 40915 ft 433 kts 232°
2026-05-04 07:59 42.13573 -79.16975 40915 ft 440 kts 220°
2026-05-04 08:00 42.08491 -79.21625 40911 ft 442 kts 218°
2026-05-04 08:02 41.87957 -79.39789 40932 ft 441 kts 218°
2026-05-04 08:02 41.82853 -79.44329 40944 ft 440 kts 218°
2026-05-04 08:03 41.77741 -79.48867 40945 ft 441 kts 218°
2026-05-04 08:03 41.72618 -79.53404 40946 ft 441 kts 218°
2026-05-04 08:04 41.67499 -79.57928 40943 ft 441 kts 218°
2026-05-04 08:04 41.62380 -79.62443 40947 ft 441 kts 218°
2026-05-04 08:05 41.57259 -79.66950 40953 ft 441 kts 218°
2026-05-04 08:05 41.52132 -79.71454 40935 ft 441 kts 218°
2026-05-04 08:06 41.47016 -79.75940 40943 ft 440 kts 218°
2026-05-04 08:06 41.41904 -79.80414 40942 ft 439 kts 218°
2026-05-04 08:08 41.21437 -79.98243 40951 ft 439 kts 218°
2026-05-04 08:11 40.98476 -80.18086 40956 ft 438 kts 218°
2026-05-04 08:11 40.90809 -80.24676 40991 ft 438 kts 218°
2026-05-04 08:12 40.85693 -80.29061 40994 ft 438 kts 218°
2026-05-04 08:12 40.80579 -80.33438 40988 ft 438 kts 218°
2026-05-04 08:13 40.75462 -80.37808 40950 ft 438 kts 218°
2026-05-04 08:13 40.70341 -80.42174 40948 ft 438 kts 218°
2026-05-04 08:14 40.65217 -80.46535 40955 ft 439 kts 218°
2026-05-04 08:16 40.44668 -80.63942 40981 ft 440 kts 218°
2026-05-04 08:16 40.39513 -80.68288 40977 ft 440 kts 218°
2026-05-04 08:17 40.34362 -80.72623 40978 ft 440 kts 218°
2026-05-04 08:17 40.29203 -80.76956 40977 ft 440 kts 218°
2026-05-04 08:19 40.08560 -80.94218 40975 ft 441 kts 218°
2026-05-04 08:20 40.03384 -80.98527 40980 ft 442 kts 218°
2026-05-04 08:20 39.98200 -81.02833 40980 ft 442 kts 218°
2026-05-04 08:21 39.93008 -81.07138 40985 ft 442 kts 218°
2026-05-04 08:21 39.87861 -81.11398 40983 ft 442 kts 218°
2026-05-04 08:22 39.82643 -81.15709 40987 ft 441 kts 218°
2026-05-04 08:24 39.61931 -81.32745 40996 ft 442 kts 218°
2026-05-04 08:24 39.56732 -81.37002 40993 ft 442 kts 218°
2026-05-04 08:25 39.51493 -81.41283 40999 ft 442 kts 218°
2026-05-04 08:25 39.46322 -81.45502 40996 ft 442 kts 218°
2026-05-04 08:27 39.25484 -81.62427 41003 ft 442 kts 218°
2026-05-04 08:28 39.20267 -81.66647 41001 ft 443 kts 218°
2026-05-04 08:28 39.15038 -81.70868 41002 ft 443 kts 218°
2026-05-04 08:29 39.09806 -81.75085 41008 ft 444 kts 218°
2026-05-04 08:31 38.88858 -81.91891 41008 ft 444 kts 218°
2026-05-04 08:33 38.67074 -82.07150 41015 ft 452 kts 208°
2026-05-04 08:35 38.43849 -82.19482 41014 ft 451 kts 208°
2026-05-04 08:35 38.38089 -82.22544 41000 ft 451 kts 208°
2026-05-04 08:37 38.17938 -82.33147 41023 ft 448 kts 206°
2026-05-04 08:38 38.12046 -82.35813 41024 ft 450 kts 204°
2026-05-04 08:38 38.06119 -82.38375 41023 ft 450 kts 204°
2026-05-04 08:40 37.83374 -82.48353 41027 ft 450 kts 205°
2026-05-04 08:41 37.77459 -82.50951 41043 ft 450 kts 205°
2026-05-04 08:41 37.71537 -82.53546 41016 ft 451 kts 205°
2026-05-04 08:42 37.65624 -82.56133 41061 ft 449 kts 205°
2026-05-04 08:42 37.59722 -82.58710 41064 ft 448 kts 205°
2026-05-04 08:43 37.53827 -82.61281 41063 ft 448 kts 205°
2026-05-04 08:43 37.47927 -82.63849 41034 ft 448 kts 205°
2026-05-04 08:44 37.42040 -82.66407 41061 ft 447 kts 205°
2026-05-04 08:46 37.18531 -82.76582 41080 ft 447 kts 206°
2026-05-04 08:46 37.12647 -82.79118 41079 ft 447 kts 206°
2026-05-04 08:47 37.06748 -82.81659 41080 ft 449 kts 206°
2026-05-04 08:47 37.00827 -82.84202 41056 ft 450 kts 206°
2026-05-04 08:48 36.94912 -82.86737 41078 ft 449 kts 206°
2026-05-04 08:48 36.89069 -82.89412 41079 ft 446 kts 208°
2026-05-04 08:49 36.83338 -82.92241 41079 ft 446 kts 208°
2026-05-04 08:50 36.63163 -83.02142 41077 ft 444 kts 208°
2026-05-04 08:51 36.57408 -83.04953 41077 ft 444 kts 208°
2026-05-04 08:51 36.51655 -83.07758 41073 ft 444 kts 209°
2026-05-04 08:52 36.45906 -83.10556 41080 ft 443 kts 209°
2026-05-04 08:52 36.40165 -83.13347 41092 ft 443 kts 209°
2026-05-04 08:54 36.17218 -83.24221 39980 ft 442 kts 202°
2026-05-04 08:55 36.14275 -83.25226 39570 ft 435 kts 207°
2026-05-04 08:55 36.11392 -83.26368 39126 ft 435 kts 207°
2026-05-04 08:55 36.08506 -83.27507 38627 ft 435 kts 207°
2026-05-04 08:55 36.05613 -83.28632 38002 ft 436 kts 207°
2026-05-04 08:57 35.84862 -83.36511 32217 ft 473 kts 205°
2026-05-04 09:01 35.42204 -83.52427 22495 ft 429 kts 202°
2026-05-04 09:01 35.39362 -83.53483 21855 ft 425 kts 202°
2026-05-04 09:01 35.36553 -83.54526 21214 ft 421 kts 202°
2026-05-04 09:01 35.33763 -83.55561 20588 ft 417 kts 202°
2026-05-04 09:02 35.31000 -83.56585 19940 ft 413 kts 202°
2026-05-04 09:02 35.28263 -83.57599 19349 ft 409 kts 201°
2026-05-04 09:02 35.25552 -83.58603 18746 ft 405 kts 201°
2026-05-04 09:02 35.22869 -83.59596 18101 ft 402 kts 201°
2026-05-04 09:03 35.20202 -83.60583 17386 ft 399 kts 201°
2026-05-04 09:03 35.17555 -83.61562 16679 ft 396 kts 201°
2026-05-04 09:03 35.14925 -83.62532 15953 ft 394 kts 201°
2026-05-04 09:03 35.12311 -83.63498 15288 ft 391 kts 201°
2026-05-04 09:04 35.09709 -83.64454 14631 ft 389 kts 201°
2026-05-04 09:04 35.07131 -83.65403 13990 ft 386 kts 200°
2026-05-04 09:04 35.04577 -83.66346 13314 ft 382 kts 200°
2026-05-04 09:04 35.02034 -83.67282 12620 ft 379 kts 200°
2026-05-04 09:05 34.99520 -83.68205 11956 ft 377 kts 199°
2026-05-04 09:05 34.97022 -83.69122 11408 ft 373 kts 199°
2026-05-04 09:05 34.94541 -83.70033 11181 ft 372 kts 199°
2026-05-04 09:05 34.92058 -83.70945 11133 ft 373 kts 199°
2026-05-04 09:06 34.89575 -83.71856 11137 ft 373 kts 199°
2026-05-04 09:07 34.72190 -83.78216 11014 ft 374 kts 199°
2026-05-04 09:08 34.69697 -83.79127 11014 ft 374 kts 199°
2026-05-04 09:08 34.67209 -83.80035 11009 ft 374 kts 199°
2026-05-04 09:08 34.64710 -83.80944 10991 ft 374 kts 199°
2026-05-04 09:08 34.62213 -83.81852 10989 ft 374 kts 199°
2026-05-04 09:09 34.59721 -83.82760 10990 ft 374 kts 199°
2026-05-04 09:09 34.57225 -83.83669 10984 ft 374 kts 198°
2026-05-04 09:09 34.54733 -83.84575 10989 ft 375 kts 198°
2026-05-04 09:09 34.52234 -83.85483 10987 ft 375 kts 198°
2026-05-04 09:10 34.49730 -83.86392 10988 ft 375 kts 198°
2026-05-04 09:10 34.47227 -83.87300 10986 ft 375 kts 198°
2026-05-04 09:10 34.44727 -83.88206 10996 ft 375 kts 198°
2026-05-04 09:10 34.42223 -83.89114 10999 ft 375 kts 198°
2026-05-04 09:11 34.39683 -83.90036 10987 ft 396 kts 198°
2026-05-04 09:11 34.37062 -83.90985 10993 ft 385 kts 198°
2026-05-04 09:11 34.34533 -83.91899 10992 ft 375 kts 198°
2026-05-04 09:11 34.32040 -83.92799 10998 ft 373 kts 198°
2026-05-04 09:12 34.29546 -83.93700 10999 ft 375 kts 198°
2026-05-04 09:12 34.27041 -83.94604 10997 ft 375 kts 198°
2026-05-04 09:14 34.10298 -84.03091 11127 ft 374 kts 209°
2026-05-04 09:14 34.07993 -84.04550 11129 ft 374 kts 209°
2026-05-04 09:14 34.05683 -84.06008 11126 ft 375 kts 208°
2026-05-04 09:14 34.03378 -84.07462 10840 ft 372 kts 208°
2026-05-04 09:15 34.01050 -84.08832 10133 ft 373 kts 201°
2026-05-04 09:15 33.98513 -84.09335 9440 ft 371 kts 178°
2026-05-04 09:15 33.95976 -84.08938 8817 ft 365 kts 169°
2026-05-04 09:15 33.93494 -84.08359 8194 ft 360 kts 169°
2026-05-04 09:17 33.76428 -84.14936 3148 ft 322 kts 205°
2026-05-04 09:18 33.74391 -84.15983 2796 ft 312 kts 204°
2026-05-04 09:18 33.72426 -84.16957 2719 ft 291 kts 204°
2026-05-04 09:18 33.70637 -84.17825 2714 ft 271 kts 204°
2026-05-04 09:18 33.68941 -84.18640 2710 ft 254 kts 204°
2026-05-04 09:19 33.67344 -84.19403 2709 ft 238 kts 204°
2026-05-04 09:19 33.65859 -84.20158 2717 ft 226 kts 212°
2026-05-04 09:19 33.64860 -84.21514 2715 ft 218 kts 251°
2026-05-04 09:19 33.64692 -84.23304 2726 ft 213 kts 271°
2026-05-04 09:20 33.64762 -84.24966 2734 ft 186 kts 273°
2026-05-04 09:20 33.64835 -84.26462 2732 ft 176 kts 272°
2026-05-04 09:20 33.64885 -84.27929 2719 ft 177 kts 272°
2026-05-04 09:20 33.64915 -84.29346 2709 ft 158 kts 271°
2026-05-04 09:21 33.64930 -84.30573 2713 ft 140 kts 271°
2026-05-04 09:21 33.64938 -84.31702 2711 ft 136 kts 270°
2026-05-04 09:21 33.64944 -84.32840 2689 ft 137 kts 270°
2026-05-04 09:21 33.64948 -84.34019 2261 ft 146 kts 270°
2026-05-04 09:22 33.64951 -84.35206 2025 ft 137 kts 270°
2026-05-04 09:22 33.64952 -84.36314 1775 ft 130 kts 270°
2026-05-04 09:22 33.64955 -84.37375 1533 ft 124 kts 270°
2026-05-04 09:22 33.64961 -84.38415 1366 ft 129 kts 271°
2026-05-04 09:23 33.64962 -84.39531 1265 ft 136 kts 269°
2026-05-04 09:23 33.64953 -84.40272 1151 ft 135 kts 270°
2026-05-04 09:23 33.64945 -84.41385 1047 ft 134 kts 269°
2026-05-04 09:23 33.64959 -84.42291 1040 ft 128 kts 273°